Regional Weather Roundup
Issued by NWS

Home | Current Version | Previous Version | Graphics & Text | Print | Product List | Glossary On
Versions: 1 2 3 4 5 6 7 8 9 10 11 12 13 14 15 16 17 18 19 20 21 22 23 24 25 26 27 28 29 30 31 32 33 34 35 36 37 38 39 40 41 42 43 44 45 46 47 48 49 50
000
ASUS43 KLSX 300510
RWRMO

WEATHER SUMMARY FOR MISSOURI
NATIONAL WEATHER SERVICE SPRINGFIELD MO
1200 AM CDT TUE AUG 30 2016

NOTE: "FAIR" INDICATES FEW OR NO CLOUDS BELOW 12,000 FEET WITH NO
       SIGNIFICANT WEATHER AND/OR OBSTRUCTIONS TO VISIBILITY.
       CURRENT SKY AND/OR WEATHER CONDITIONS ARE NOT AVAILABLE FOR
       CHILLICOTHE AND FARMINGTON.

MOZ001>031-035>038-043-044-053-054-300600-
...NORTHERN AND WESTERN MISSOURI...

CITY           SKY/WX    TMP DP  RH WIND       PRES   REMARKS
KANSAS CTY INT PTCLDY    75  69  81 NW3       30.16S
KANSAS C DTWN  MOCLDY    78  73  84 N3        30.14S
LEE`S SUMMIT   MOCLDY    78  73  84 E6        30.16S
ST JOSEPH      CLOUDY    74  69  85 N13       30.18R THUNDER
CHILLICOTHE      N/A     74  71  91 CALM      30.17S
KIRKSVILLE     PTCLDY    73  70  90 NE5       30.18S

$$
MOZ066>068-077>081-088>096-101>105-300600-
...SOUTHWEST MISSOURI...

CITY           SKY/WX    TMP DP  RH WIND       PRES   REMARKS
SPRINGFIELD    CLOUDY    77  69  76 CALM      30.16S
JOPLIN         CLEAR     74  68  81 CALM      30.15S
BRANSON        CLOUDY    72  72 100 CALM      30.17S

$$
MOZ032>034-039>042-045>050-055>058-069>072-300600-
...CENTRAL MISSOURI...

CITY           SKY/WX    TMP DP  RH WIND       PRES   REMARKS
COLUMBIA       CLEAR     76  72  87 E3        30.16S
JEFFERSON CITY CLEAR     76  73  91 CALM      30.14S
ROLLA          CLEAR     73  70  90 CALM      30.16S
SEDALIA        PTCLDY    76  73  91 CALM      30.16F
WHITEMAN AFB   MOCLDY    77  77 100 SE3       30.14S
OSAGE BEACH    CLEAR     74  72  93 E3        30.16S

$$
MOZ051-052-059>065-300600-
...EAST CENTRAL MISSOURI...

CITY           SKY/WX    TMP DP  RH WIND       PRES   REMARKS
ST LOUIS INTL  PTCLDY    81  74  79 E5        30.15F
SPIRIT OF STL  CLEAR     76  75  97 CALM      30.14R
ST CHARLES     CLEAR     78  76  93 E3        30.13F

$$
MOZ072>076-082>087-097>100-106>115-300600-
...SOUTH CENTRAL AND SOUTHEAST MISSOURI...

CITY           SKY/WX    TMP DP  RH WIND       PRES   REMARKS
CAPE GIRARDEAU CLEAR     73  71  93 CALM      30.11F
FARMINGTON     CLEAR     74  72  93 CALM      30.17S
POPLAR BLUFF   CLEAR     77  74  90 N5        30.11R
WEST PLAINS    CLEAR     73  70  90 N5        30.18S

$$



USA.gov is the U.S. government's official web portal to all federal, state and local government web resources and services.